ATLAS 5 CENTAUR DEB, 46638

Orbit data source: Space-Track

ATLAS 5 CENTAUR DEB, 46638 is space debris in HEO originally from a launch on Wed, 17 Sep 2014 UTC launched from the Air Force Eastern Test Range (AFETR). Debris objects in space refer to the collection of defunct objects orbiting the Earth. Examples of debris include non-operational satellites, rocket bodies, and fragments generated from explosions, collisions, or faulty payload assembly.

Loading next visibility...
Identifier
46638, 2014-055CN
Orbit
HEO
Country
Flag of USUS
Related business
Flag of USUnited Launch Alliance/Lockheed Martin (US)
Manufacturer
Unknown
Mission
Spacecraft
Bus & Motor
Unknown
Mass
Unknown
Launch date (UTC)
2014-09-17 (12 years ago)
Launch vehicle
Unknown
Launch site
Air Force Eastern Test Range (AFETR)
Object type
Payload
Rocket body
Debris
Shape & HBR
Unknown shape, 1.1 m
Radar Cross Section
Small (<0.1 m²)

Expand to show TLE details & history
Last TLE update: 4 days ago

TLE from 4 days ago
0 ATLAS 5 CENTAUR DEB
1 46638U 14055CN  26115.65994537 -.00000121  00000-0  00000-0 0  9990
2 46638  21.0732 101.0687 5177379 247.7827  50.8308  1.92376584 39004
Epoch: 2026-04-25T15:50Z
TLE epoch observation values (Epoch: 2026-04-25T15:50:19.279Z)
Latitude
-0.00008°
Longitude
9.78257°
Altitude
18,447.095 km
Speed
4.185 km/s
True Right ascension
06h 44m 09s
True Declination
0° 00' 00"
Sunlit
Object was in daylight at epoch
Visualization orbit readout
Latitude
Unknown
Longitude
Unknown
Altitude
Unknown
Speed
Unknown
Apparent Right ascension
Unknown
Apparent Declination
Unknown
Sunlit
N/A
Visualization observer readout
Local Sidereal Time
09:32:55
Azimuth
Unknown
Elevation
Unknown
Doppler factor
Unknown
Orbital elements
Apogee altitude
35,072.426 km
Perigee altitude
6,792.803 km
Semi-major axis
27,310.751 km
Eccentricity
0.51774
Inclination
21.0732°
RAAN
101.0687°
Arg. of periapsis
247.7827°
True anomaly
112.26062°
Mean anomaly
50.8308°
Eccentric anomaly
80.0487°
Mean motion
0.48089 °/min
Orbital period
748.62 mins
BSTAR
0
Loading maneuver chart data...
Computing Atmospheric mass density...

Documentation

Showing up to 5 results
|